Location: College Park
(38.9810°N, 76.9370°W)
Time: 11:32:08
(UTC-04:00)

Hubble Space Telescope - Pass Details

Date: 07 January 2018
Orbit: 537 x 541 km, 28.5° (Epoch: 21 April)

Event Time Altitude Azimuth Distance (km) Brightness Sun altitude
Exits shadow 04:38:01 13° 140° (SE) 1,598 3.6 -32.1°
Drops below altitude 10° 04:38:42 10° 132° (SE) 1,760 3.9 -32.0°
Sets 04:41:39 0° 111° (ESE) 2,677 5.4 -31.4°
